Regional Weather Roundup
Issued by NWS Upton, NY

Current Version | Previous Version | Text Only | Print | Product List | Glossary On
Versions: 1 2 3 4 5 6 7 8 9 10 11 12 13 14 15 16 17 18 19 20 21 22 23 24 25 26 27 28 29 30 31 32 33 34 35 36 37 38 39 40 41 42 43 44 45 46 47 48 49 50
000
ASUS41 KOKX 191505
RWROKX

REGIONAL WEATHER ROUNDUP
NATIONAL WEATHER SERVICE NEW YORK NY
1100 AM EDT TUE AUG 19 2014

NOTE: "FAIR" INDICATES FEW OR NO CLOUDS BELOW 12,000 FEET WITH NO
SIGNIFICANT WEATHER AND/OR OBSTRUCTIONS TO VISIBILITY.

NYZ071-072-176-178-NJZ106-104-191600-
NEW YORK CITY METRO AREA


CITY           SKY/WX    TMP DP  RH WIND       PRES   REMARKS
CENTRAL PARK   SUNNY     74  58  57 NE7       29.95R
LAGUARDIA APRT MOSUNNY   73  60  63 NE10      29.92S
KENNEDY INTL   PTSUNNY   75  62  64 SE6       29.93R
NEWARK/LIBERTY PTSUNNY   76  61  59 VRB3      29.92R
BRNX BOT. GARD   N/A     72  59  64 N7        29.94S
TETERBORO      SUNNY     75  58  55 CALM      29.92R
$$

NYZ177-179-078>081-191600-
LONG ISLAND NEW YORK

CITY           SKY/WX    TMP DP  RH WIND       PRES   REMARKS
FARMINGDALE    PTSUNNY   72  63  73 E5        29.93R
ISLIP          MOSUNNY   74  56  53 SE6       29.91S
SHIRLEY        SUNNY     74  58  57 SE10      29.94R
WESTHAMPTON    SUNNY     74  53  48 VRB7      29.95R
MONTAUK POINT    N/A     71  57  61 NE6       29.96R
$$

NYZ052-065-067-191600-
HUDSON VALLEY

CITY           SKY/WX    TMP DP  RH WIND       PRES   REMARKS
WHITE PLAINS   MOSUNNY   73  55  53 VRB7      29.93S
NEWBURGH       SUNNY     70  57  64 VRB7      29.95S
MONTGOMERY     SUNNY     72  55  55 MISG      29.94S
POUGHKEEPSIE   SUNNY     71  54  54 CALM      29.93S
ALBANY         MOSUNNY   67  55  65 CALM      29.96R
$$

NJZ001-105-106-008-010-013-015-019>022-104-191600-
NEW JERSEY

CITY           SKY/WX    TMP DP  RH WIND       PRES   REMARKS
NEWARK/LIBERTY PTSUNNY   76  61  59 VRB3      29.92R
TETERBORO      SUNNY     75  58  55 CALM      29.92R
CALDWELL       SUNNY     74  57  55 VRB5      29.94R
MORRISTOWN     MOSUNNY   75  59  57 CALM      29.94R
SOMERVILLE     SUNNY     78  60  53 MISG      29.90R
LINDEN         FAIR      80  64  59 SE5       29.94R
SUSSEX         SUNNY     75  56  51 NE5       29.94R
ANDOVER          N/A     74  58  57 N3        29.94R
TRENTON        SUNNY     76  63  64 E7        29.90S
MILLVILLE      MOSUNNY   78  64  61 SE10      29.89R
ATLANTIC CITY  MOSUNNY   77  65  66 SE10      29.90R
WRIGHTSTOWN    MOSUNNY   77  67  70 E5        29.88R
TOMS RIVER     MOSUNNY   79  63  57 SE7       29.90S
BELMAR         PTSUNNY   75  64  69 E8        29.92R
$$

PAZ047>061-062-071-191600-
EASTERN PENNSYLVANIA

CITY           SKY/WX    TMP DP  RH WIND       PRES   REMARKS
PHILADELPHIA   MOSUNNY   79  64  60 E5        29.90R
ALLENTOWN      SUNNY     76  56  49 CALM      29.93R
SCRANTON       MOSUNNY   75  55  49 VRB5      29.94R
$$

CTZ002-004>006-009-010-012-RIZ004-006-007-MAZ004-011-015-191600-
SOUTHERN NEW ENGLAND
 IN CT

CITY           SKY/WX    TMP DP  RH WIND       PRES   REMARKS
BRADLEY INTL   MOSUNNY   70  49  47 N3        29.94S
HARTFORD       SUNNY     70  50  49 NE6       29.94S
DANBURY        SUNNY     70  54  56 S3        29.95S
WTRBRY/OXFORD  MOSUNNY   70  54  56 E5        29.97R
BRIDGEPORT     SUNNY     71  55  56 E8        29.94R
MERIDEN        SUNNY     73  51  46 VRB3      29.94S
NEW HAVEN      MOSUNNY   74  51  44 SE8       29.94R
CHESTER        FAIR      73  50  43 CALM      29.96R
GROTON         SUNNY     70  56  61 S7        29.94R
WILLIMANTIC    SUNNY     71  50  47 CALM      29.96R

 IN RI

CITY           SKY/WX    TMP DP  RH WIND       PRES   REMARKS
PROVIDENCE     MOSUNNY   73  50  44 W5        29.94R
BLOCK ISLAND     N/A    N/A N/A N/A MISG        N/A
WESTERLY       SUNNY     75  50  41 N5        29.95R

 IN MA

CITY           SKY/WX    TMP DP  RH WIND       PRES   REMARKS
BOSTON         MOSUNNY   69  53  56 SE6       29.93R
WORCESTER      SUNNY     67  48  50 W7        29.96R
WESTFIELD      SUNNY     70  51  51 VRB5      29.95R
PROVINCETOWN   SUNNY     66  57  72 MISG      29.94R
NANTUCKET      SUNNY     72  55  55 N6        29.93R
$$

ANZ330-335-338-340-345-350-353-355-191600-
COASTAL MARINE OBSERVATIONS


STATION/POSITION TIME  SKY/WX   TEMP    WIND        PRES    VSBY  WAVE
                                AIR SEA DIR/SP/G                  HT/PER
                 (UTC)          (F)     (DEG/KT/KT) (MB)    (MI)  (FT/S)
NY HARB ENTRANCE NOT AVBL
4S FIRE IS       NOT AVBL
23SW MTP         1500            69 68              1013.2          2/ 8
HUDSON CANYON    1500            73 73  120/ 10/ 12 1012.5          2/ 9
EXECUTION ROCKS  1500            69 72   70/ 12/ 16   N/A
WESTERN LI SOUND 1500            68      60/ 10/ 12   N/A           1/ 3
CENTRAL LI SOUND 1400            67 71   80/  8/ 10   N/A           1
EASTERN LI SOUND 1400            69 69   70/  6/  8   N/A
ROBBINS REEF     1500            72      50/  3/  4   N/A
$$


>>>>>>>>>>>>>>>>>>>>>>>>>>>> KEY <<<<<<<<<<<<<<<<<<<<<<<<<<<
>                                                          <
>     SKY/WX - SKY CONDITION/PRESENT WEATHER               <
>     TMP    - TEMPERATURE IN FAHRENHEIT                   <
>     DP     - DEWPOINT IN FAHRENHEIT                      <
>     RH     - RELATIVE HUMIDITY IN PERCENT                <
>     WIND   - DIRECTION AND SPEED IN MPH                  <
>     PRES   - MEAN SEA LEVEL PRESSURE IN INCHES OF HG     <
>     WCI    - WIND CHILL INDEX                            <
>     VSB    - VISIBILITY IN MILES                         <
>     HX     - HEAT INDEX                                  <
>     TC     - TEMPERATURE IN CELSIUS                      <
>     VRB    - VARIABLE WIND DIRECTION                     <
>                                                          <
>>>>>>>>>>>>>>>>>>>>>>>>>>>> KEY <<<<<<<<<<<<<<<<<<<<<<<<<<<




USA.gov is the U.S. government's official web portal to all federal, state and local government web resources and services.